Terminal Aerodrome Forecast
Issued by NWS

Home | Current Version | Previous Version | Graphics & Text | Print | Product List | Glossary On
Versions: 1 2 3 4 5 6 7 8 9 10 11 12 13 14 15
000
FTUS43 KICT 282300
TAFRSL
TAF
KRSL 282334Z 2900/2924 VRB03KT P6SM SKC
     FM291200 14010KT P6SM SCT110=

USA.gov is the U.S. government's official web portal to all federal, state and local government web resources and services.